#timestamp,LO_Frequency,Hit,StdDev 
1701705615.4,286047003.2,N
1701705635.2,286047003.7,N
1701705655.0,286047001.3,N
1701705655.9,286047001.3,N
1701705675.8,286047005.6,Y
1701705695.6,286047001.7,P
1701705715.4,286047001.7,P
1701705735.3,286047001.7,P
1701705755.1,286047004.1,Y
1701705775.9,286047002.8,P
1701705795.7,286047002.8,P
1701705815.5,286047001.4,N
1701705835.4,286047001.8,N
1701705855.2,286047001.5,N
1701705875.0,286047004.4,Y
1701705876.0,286047004.4,P
1701705895.8,286046998.3,N
1701705915.6,286047001.1,N
1701705935.5,286047000.0,N
1701705955.3,286047002.6,N
1701705975.1,286047001.8,N
1701705995.9,286047001.3,N
1701706015.7,286047002.1,N
1701706035.6,286047002.8,N
1701706055.4,286047002.4,N
1701706075.2,286047000.4,N
1701706095.1,286047000.0,N
1701706096.0,286047000.0,N
1701706115.8,286047002.3,N
1701706135.6,286046999.9,N
1701706155.5,286047000.3,N
1701706175.3,286047000.3,N
1701706195.2,286047000.0,N
1701706215.9,286047002.4,N
1701706235.7,286047002.2,N
1701706255.6,286047002.5,N
1701706275.4,286047002.1,N
1701706295.2,286047002.4,N
1701706315.1,286047002.3,N
1701706316.0,286047002.3,N
1701706335.8,286047002.8,N
1701706355.7,286046999.8,N
1701706375.5,286047000.1,N
1701706395.3,286047001.5,N
1701706415.2,286047003.6,N
1701706435.0,286047004.3,Y
1701706435.9,286047004.3,P
1701706455.7,286046999.9,N
1701706475.6,286047000.2,N
1701706495.4,286047002.4,N
1701706515.3,286047001.5,N
1701706535.1,286047001.7,N
1701706536.0,286047001.7,N
1701706555.8,286047004.2,Y
1701706575.7,286046999.7,P
1701706595.5,286046998.2,N
1701706615.4,286047001.1,N
1701706635.2,286046998.6,N
1701706655.0,286046998.2,N
1701706655.9,286046998.2,N
1701706675.8,286047001.2,N
1701706695.6,286047000.9,N
1701706715.5,286047002.7,N
1701706735.3,286047002.6,N
1701706755.1,286047002.6,N
1701706775.9,286047002.5,N
1701706795.7,286046999.7,N
1701706815.5,286047001.3,N
1701706835.4,286047002.8,N
1701706855.2,286047002.0,N
1701706875.1,286047003.8,N
1701706876.0,286047003.8,N
1701706895.8,286047001.9,N
1701706915.6,286047003.7,N
1701706935.5,286047001.4,N
1701706955.3,286047003.1,N
1701706975.1,286047003.0,N
1701706995.9,286047003.6,N
1701707015.7,286047001.9,N
1701707035.6,286047001.8,N
1701707055.4,286047002.6,N
1701707075.2,286047004.3,N
1701707095.1,286047001.8,N
1701707096.0,286047001.8,N
1701707115.8,286047002.7,N
1701707135.6,286047001.8,N
1701707155.5,286047001.3,N
1701707175.3,286047001.7,N
1701707195.2,286047004.1,N
1701707215.9,286047004.3,Y
1701707235.7,286047002.7,P
1701707255.6,286047001.9,P
1701707275.4,286047003.8,P
1701707295.2,286047003.8,Y
1701707315.1,286046998.3,P
1701707316.0,286046998.3,N
1701707335.8,286046999.2,N
1701707355.7,286046996.5,N
1701707375.5,286046999.0,N
1701707395.3,286046998.7,N
1701707415.2,286046997.0,N
1701707435.0,286046996.6,N
1701707435.9,286046996.6,N
1701707455.8,286046996.7,N
1701707475.6,286046999.6,N
1701707495.4,286046999.3,N
1701707515.3,286046998.4,N
1701707535.1,286046997.0,N
1701707555.9,286046996.9,N
1701707575.7,286046996.9,N
1701707595.5,286046997.9,N
1701707615.4,286046997.4,N
1701707635.2,286046999.0,N
1701707655.1,286046999.2,N
1701707656.0,286046999.2,N
1701707675.8,286046998.8,N
1701707695.6,286047000.7,N
1701707715.5,286046998.2,N
1701707735.3,286047001.0,N
1701707755.2,286047000.3,N
1701707775.9,286046999.9,N
1701707795.7,286047001.1,N
1701707815.6,286047002.5,N
1701707835.4,286047000.6,N
1701707855.2,286047000.2,N
1701707875.1,286047000.4,N
1701707876.0,286047000.4,N
1701707895.8,286047003.9,N
1701707915.7,286047001.8,N
1701707935.5,286047001.6,N
1701707955.3,286047001.6,N
1701707975.2,286047002.4,N
1701707995.0,286046999.8,N
1701707995.9,286046999.8,N
1701708015.7,286047000.6,N
1701708035.6,286046999.9,N
1701708055.4,286047000.4,N
1701708075.3,286046998.1,N
1701708095.1,286046998.3,N
1701708096.0,286046998.3,N
1701708115.8,286047000.0,N
1701708135.7,286047001.5,N
1701708155.5,286047002.8,N
1701708175.3,286047002.6,N
1701708195.2,286047002.0,N
1701708215.0,286047001.4,N
1701708215.9,286047001.4,N
1701708235.8,286047004.3,Y
1701708255.6,286047002.2,P
1701708275.5,286047002.5,P
1701708295.3,286047001.6,N
1701708315.1,286047002.7,Y
1701708335.9,286046999.4,P
1701708355.7,286046999.5,N
1701708375.5,286046996.9,N
1701708395.4,286046999.5,N
1701708415.2,286046999.1,N
1701708435.1,286046998.8,N
1701708436.0,286046998.8,N
1701708455.8,286046999.3,N
1701708475.6,286046998.2,N
1701708495.5,286046998.1,N
1701708515.3,286046998.5,N
1701708535.1,286047000.1,N
1701708555.9,286046998.8,N
1701708575.7,286046998.8,N
1701708595.6,286046999.1,N
1701708615.4,286047000.6,N
1701708635.2,286047000.7,N
1701708655.1,286047000.7,N
1701708656.0,286047000.7,N
1701708675.8,286047000.7,N
1701708695.7,286047000.4,N
1701708715.5,286047001.1,N
1701708735.3,286047000.3,N
1701708755.2,286046998.6,N
1701708775.0,286046999.3,N
1701708775.9,286046999.3,N
1701708795.8,286046999.0,N
1701708815.6,286046998.4,N
1701708835.4,286046996.5,Y
1701708855.3,286047001.1,P
1701708875.1,286046997.0,P
1701708895.9,286046997.8,N
1701708915.7,286046997.9,N
1701708935.5,286046996.7,N
1701708955.4,286046997.3,N
1701708975.2,286046997.3,N
1701708995.0,286046997.7,N
1701708995.9,286046997.7,N
1701709015.8,286046996.9,N
1701709035.6,286046996.7,N
1701709055.5,286046997.0,N
1701709075.3,286046999.6,N
1701709095.1,286046998.9,N
1701709115.9,286046999.3,N
1701709135.7,286047001.1,N
1701709155.5,286046998.9,N
1701709175.4,286046999.4,N
1701709195.2,286046999.1,N
